Glencoe, MN

6:01 PM CST on December 15, 2019 (GMT -0600)
Glencoe Municipal

Weather History for KGYL - October, 2019

Change the Weather History Date:

Saturday, October 5, 2019

  Actual Average (KHCD) Record (KHCD)
Temperature  
Mean Temperature 52 °F -  
Max Temperature 57 °F 65 °F 87 °F (1963)
Min Temperature 46 °F 40 °F 28 °F (1988)
Degree Days  
Heating Degree Days 14    
Growing Degree Days 2 (Base 50)    
Moisture  
Dew Point 49 °F    
Average Humidity 93    
Maximum Humidity 100    
Minimum Humidity 72    
Precipitation  
Precipitation 1.09 in - - ()
Sea Level Pressure  
Sea Level Pressure 29.83 in    
Wind  
Wind Speed 10 mph (South)    
Max Wind Speed 16 mph    
Max Gust Speed 31 mph    
Visibility 8 miles    
Events Rain , Thunderstorm    
Averages and records for this station are not official NWS values.
T = Trace of Precipitation, MM = Missing Value Source: NWS Daily Summary

Daily Weather History Graph

Daily Weather History Graph

Search for Another Location

Airport or City:

Astronomy

Oct. 05, 2019 Rise Set
Actual Time 7:18 AM CDT 6:49 PM CDT
Civil Twilight 6:49 AM CDT 7:18 PM CDT
Nautical Twilight 6:15 AM CDT 7:52 PM CDT
Astronomical Twilight 5:41 AM CDT 8:26 PM CDT
Moon 2:59 PM CDT (10/5) 11:59 PM CDT (10/5)
Length of Visible Light 12h 29m
Length of Day
11h 30m
Waxing Crescent, 50% of the Moon is Illuminated
Oct 5
Waxing Crescent
Oct 13
Full
Oct 21
Last Quarter
Oct 27
New
Nov 4
First Quarter

Hourly Weather History & Observations

Time (CDT) Temp. Windchill Dew Point Humidity Pressure Visibility Wind Dir Wind Speed Gust Speed Precip Events Conditions
12:59 AM 48.2 °F - 44.6 °F 87% 30.13 in 10.0 mi East 5.8 mph - N/A   Overcast
1:59 AM 46.4 °F 41.1 °F 46.4 °F 100% 30.08 in 7.0 mi East 11.5 mph - 0.01 in Rain Light Rain
2:59 AM 46.4 °F 40.1 °F 46.4 °F 100% 30.02 in 7.0 mi ESE 15.0 mph - 0.09 in Rain , Thunderstorm Light Thunderstorms and Rain
3:59 AM 48.2 °F - 48.2 °F 100% 29.97 in 5.0 mi ESE 16.1 mph 21.9 mph 0.08 in Rain , Thunderstorm Rain
4:59 AM 48.2 °F - 48.2 °F 100% 29.97 in 5.0 mi SE 9.2 mph 16.1 mph 0.22 in Rain Rain
5:59 AM 50.0 °F - 50.0 °F 100% 29.94 in 3.0 mi SE 4.6 mph - 0.33 in Rain Heavy Rain
6:59 AM 50.0 °F - 50.0 °F 100% 29.90 in 5.0 mi SE 8.1 mph - 0.25 in Rain Rain
7:59 AM 50.0 °F - 50.0 °F 100% 29.88 in 10.0 mi SE 10.4 mph - 0.06 in Rain , Thunderstorm Light Thunderstorms and Rain
8:59 AM 50.0 °F - 50.0 °F 100% 29.82 in 10.0 mi SE 9.2 mph 18.4 mph 0.02 in   Overcast
9:59 AM 51.8 °F - 51.8 °F 100% 29.78 in 10.0 mi SE 12.7 mph 17.3 mph N/A   Overcast
10:59 AM 50.0 °F - 50.0 °F 100% 29.76 in 3.0 mi SSE 11.5 mph 20.7 mph N/A   Drizzle
11:59 AM 51.8 °F - 51.8 °F 100% 29.72 in 4.0 mi SSE 12.7 mph 19.6 mph N/A   Overcast
12:59 PM 51.8 °F - 51.8 °F 100% 29.70 in 3.0 mi South 8.1 mph 16.1 mph 0.02 in   Drizzle
1:59 PM 53.6 °F - 53.6 °F 100% 29.66 in 4.0 mi South 6.9 mph - 0.01 in   Overcast
2:59 PM 57.2 °F - 57.2 °F 100% 29.65 in 10.0 mi South 9.2 mph - N/A   Overcast
3:59 PM 55.4 °F - 53.6 °F 94% 29.68 in 10.0 mi WSW 15.0 mph 25.3 mph N/A   Overcast
4:59 PM 57.2 °F - 48.2 °F 72% 29.69 in 10.0 mi WSW 12.7 mph 20.7 mph N/A   Overcast
5:59 PM 55.4 °F - 48.2 °F 77% 29.72 in 10.0 mi WSW 11.5 mph 19.6 mph N/A   Overcast
6:59 PM 53.6 °F - 46.4 °F 77% 29.75 in 10.0 mi West 11.5 mph 24.2 mph N/A   Mostly Cloudy
7:59 PM 51.8 °F - 44.6 °F 76% 29.78 in 10.0 mi West 15.0 mph 31.1 mph N/A   Mostly Cloudy
8:59 PM 51.8 °F - 46.4 °F 82% 29.80 in 10.0 mi WSW 6.9 mph - N/A   Mostly Cloudy
9:59 PM 48.2 °F - 46.4 °F 93% 29.83 in 10.0 mi SW 4.6 mph - N/A   Scattered Clouds
10:59 PM 48.2 °F - 46.4 °F 93% 29.85 in 10.0 mi WSW 6.9 mph - N/A   Scattered Clouds
11:59 PM 50.0 °F - 46.4 °F 87% 29.85 in 10.0 mi WSW 6.9 mph - N/A   Clear